owner,sensor,date,latitude,longitude,vertical_datum,direction_of_sea_water_velocity,sea_water_speed,upward_sea_water_velocity,qcFlag 
TABS,ioos:station:wmo:42048:1,2016-03-01T00:00:00Z,27.9396,-96.8429,2.0,30.86564334,13.00132686,-99999.0,'11111222,11111222,99999999' 
TABS,ioos:station:wmo:42048:1,2016-03-01T00:30:00Z,27.9396,-96.8429,2.0,22.4666513,15.5177479,-99999.0,'11111222,11111222,99999999' 
TABS,ioos:station:wmo:42048:1,2016-03-01T01:00:00Z,27.9396,-96.8429,2.0,26.9790151,13.62248142,-99999.0,'11111222,11111222,99999999' 
TABS,ioos:station:wmo:42048:1,2016-03-01T01:30:00Z,27.9396,-96.8429,2.0,24.16847752,15.82731816,-99999.0,'11111222,11111222,99999999' 
TABS,ioos:station:wmo:42048:1,2016-03-01T02:00:00Z,27.9396,-96.8429,2.0,24.44091274,14.83980121,-99999.0,'11111222,11111222,99999999' 
TABS,ioos:station:wmo:42048:1,2016-03-01T02:30:00Z,27.9396,-96.8429,2.0,26.56519952,16.18913216,-99999.0,'11111222,11111222,99999999' 
TABS,ioos:station:wmo:42048:1,2016-03-01T03:00:00Z,27.9396,-96.8429,2.0,35.0893836,19.30932417,-99999.0,'11111222,11111222,99999999' 
TABS,ioos:station:wmo:42048:1,2016-03-01T03:30:00Z,27.9396,-96.8429,2.0,35.84038467,19.81119885,-99999.0,'11111222,11111222,99999999' 
TABS,ioos:station:wmo:42048:1,2016-03-01T04:00:00Z,27.9396,-96.8429,2.0,40.35333677,19.28963711,-99999.0,'11111222,11111222,99999999' 
TABS,ioos:station:wmo:42048:1,2016-03-01T04:30:00Z,27.9396,-96.8429,2.0,40.48612733,17.7894182,-99999.0,'11111222,11111222,99999999' 
TABS,ioos:station:wmo:42048:1,2016-03-01T05:00:00Z,27.9396,-96.8429,2.0,37.96170566,20.88979177,-99999.0,'11111222,11111222,99999999' 
TABS,ioos:station:wmo:42048:1,2016-03-01T05:30:00Z,27.9396,-96.8429,2.0,37.45948625,19.8290494,-99999.0,'11111222,11111222,99999999' 
TABS,ioos:station:wmo:42048:1,2016-03-01T06:00:00Z,27.9396,-96.8429,2.0,40.9255929,18.21160344,-99999.0,'11111222,11111222,99999999' 
TABS,ioos:station:wmo:42048:1,2016-03-01T06:30:00Z,27.9396,-96.8429,2.0,36.35112771,19.65480603,-99999.0,'11111222,11111222,99999999' 
TABS,ioos:station:wmo:42048:1,2016-03-01T07:00:00Z,27.9396,-96.8429,2.0,39.7986432,20.82519868,-99999.0,'11111222,11111222,99999999' 
TABS,ioos:station:wmo:42048:1,2016-03-01T07:30:00Z,27.9396,-96.8429,2.0,45.29039101,22.33071875,-99999.0,'11111222,11111222,99999999' 
TABS,ioos:station:wmo:42048:1,2016-03-01T08:00:00Z,27.9396,-96.8429,2.0,48.37775733,21.24303415,-99999.0,'11111222,11111222,99999999' 
TABS,ioos:station:wmo:42048:1,2016-03-01T08:30:00Z,27.9396,-96.8429,2.0,40.71857901,23.86782353,-99999.0,'11111222,11111222,99999999' 
TABS,ioos:station:wmo:42048:1,2016-03-01T09:00:00Z,27.9396,-96.8429,2.0,46.9334014,23.4751656,-99999.0,'11111222,11111222,99999999' 
TABS,ioos:station:wmo:42048:1,2016-03-01T09:30:00Z,27.9396,-96.8429,2.0,43.69895456,23.04348064,-99999.0,'11111222,11111222,99999999' 
TABS,ioos:station:wmo:42048:1,2016-03-01T10:00:00Z,27.9396,-96.8429,2.0,46.85733297,24.43630496,-99999.0,'11111222,11111222,99999999' 
TABS,ioos:station:wmo:42048:1,2016-03-01T10:30:00Z,27.9396,-96.8429,2.0,49.92932544,22.95981925,-99999.0,'11111222,11111222,99999999' 
TABS,ioos:station:wmo:42048:1,2016-03-01T11:00:00Z,27.9396,-96.8429,2.0,50.91121444,22.3147328,-99999.0,'11111222,11111222,99999999' 
TABS,ioos:station:wmo:42048:1,2016-03-01T11:30:00Z,27.9396,-96.8429,2.0,52.82195043,21.56231203,-99999.0,'11111222,11111222,99999999' 
TABS,ioos:station:wmo:42048:1,2016-03-01T12:00:00Z,27.9396,-96.8429,2.0,56.08873669,21.54471629,-99999.0,'11111222,11111222,99999999' 
TABS,ioos:station:wmo:42048:1,2016-03-01T12:30:00Z,27.9396,-96.8429,2.0,52.36191288,20.58385047,-99999.0,'11111222,11111222,99999999' 
TABS,ioos:station:wmo:42048:1,2016-03-01T13:00:00Z,27.9396,-96.8429,2.0,61.08151047,16.77124026,-99999.0,'11111222,11111222,99999999' 
TABS,ioos:station:wmo:42048:1,2016-03-01T13:30:00Z,27.9396,-96.8429,2.0,56.34291457,14.48877151,-99999.0,'11111222,11111222,99999999' 
TABS,ioos:station:wmo:42048:1,2016-03-01T14:00:00Z,27.9396,-96.8429,2.0,63.58258472,13.89050035,-99999.0,'11111222,11111222,99999999' 
TABS,ioos:station:wmo:42048:1,2016-03-01T14:30:00Z,27.9396,-96.8429,2.0,64.72717481,11.89890751,-99999.0,'11111222,11111222,99999999' 
TABS,ioos:station:wmo:42048:1,2016-03-01T15:00:00Z,27.9396,-96.8429,2.0,71.31269219,13.63903589,-99999.0,'11111222,11111222,99999999' 
TABS,ioos:station:wmo:42048:1,2016-03-01T15:30:00Z,27.9396,-96.8429,2.0,76.52889646,17.21359056,-99999.0,'11111222,11111222,99999999' 
TABS,ioos:station:wmo:42048:1,2016-03-01T16:00:00Z,27.9396,-96.8429,2.0,74.77402896,15.5353307,-99999.0,'11111222,11111222,99999999' 
TABS,ioos:station:wmo:42048:1,2016-03-01T16:30:00Z,27.9396,-96.8429,2.0,65.43579188,15.37115806,-99999.0,'11111222,11111222,99999999' 
TABS,ioos:station:wmo:42048:1,2016-03-01T17:00:00Z,27.9396,-96.8429,2.0,65.19583597,15.13638332,-99999.0,'11111222,11111222,99999999' 
TABS,ioos:station:wmo:42048:1,2016-03-01T17:30:00Z,27.9396,-96.8429,2.0,66.41811703,14.52281653,-99999.0,'11111222,11111222,99999999' 
TABS,ioos:station:wmo:42048:1,2016-03-01T18:00:00Z,27.9396,-96.8429,2.0,55.66501765,14.28998251,-99999.0,'11111222,11111222,99999999' 
TABS,ioos:station:wmo:42048:1,2016-03-01T18:30:00Z,27.9396,-96.8429,2.0,59.1086436,16.30266849,-99999.0,'11111222,11111222,99999999' 
TABS,ioos:station:wmo:42048:1,2016-03-01T19:00:00Z,27.9396,-96.8429,2.0,63.57559431,16.40384406,-99999.0,'11111222,11111222,99999999' 
TABS,ioos:station:wmo:42048:1,2016-03-01T19:30:00Z,27.9396,-96.8429,2.0,56.26981084,15.81173299,-99999.0,'11111222,11111222,99999999' 
TABS,ioos:station:wmo:42048:1,2016-03-01T20:00:00Z,27.9396,-96.8429,2.0,55.09996332,18.38686488,-99999.0,'11111222,11111222,99999999' 
TABS,ioos:station:wmo:42048:1,2016-03-01T20:30:00Z,27.9396,-96.8429,2.0,52.58708714,17.51278676,-99999.0,'11111222,11111222,99999999' 
TABS,ioos:station:wmo:42048:1,2016-03-01T21:00:00Z,27.9396,-96.8429,2.0,47.79506979,17.401385,-99999.0,'11111222,11111222,99999999' 
TABS,ioos:station:wmo:42048:1,2016-03-01T21:30:00Z,27.9396,-96.8429,2.0,47.26170285,14.51406559,-99999.0,'11111222,11111222,99999999' 
TABS,ioos:station:wmo:42048:1,2016-03-01T22:00:00Z,27.9396,-96.8429,2.0,44.68384913,15.37273561,-99999.0,'11111222,11111222,99999999' 
TABS,ioos:station:wmo:42048:1,2016-03-01T22:30:00Z,27.9396,-96.8429,2.0,41.04758428,15.18233842,-99999.0,'11111222,11111222,99999999' 
TABS,ioos:station:wmo:42048:1,2016-03-01T23:00:00Z,27.9396,-96.8429,2.0,34.85408051,16.65831024,-99999.0,'11111222,11111222,99999999' 
TABS,ioos:station:wmo:42048:1,2016-03-01T23:30:00Z,27.9396,-96.8429,2.0,32.9971746,18.8029386,-99999.0,'11111222,11111222,99999999' 
TABS,ioos:station:wmo:42048:1,2016-03-02T00:00:00Z,27.9396,-96.8429,2.0,39.19804277,17.62654816,-99999.0,'11111222,11111222,99999999' 
TABS,ioos:station:wmo:42048:1,2016-03-02T00:30:00Z,27.9396,-96.8429,2.0,39.38079765,18.99223262,-99999.0,'11111222,11111222,99999999' 
TABS,ioos:station:wmo:42048:1,2016-03-02T01:00:00Z,27.9396,-96.8429,2.0,41.48428714,18.79491687,-99999.0,'11111222,11111222,99999999' 
TABS,ioos:station:wmo:42048:1,2016-03-02T01:30:00Z,27.9396,-96.8429,2.0,38.97231168,18.0461464,-99999.0,'11111222,11111222,99999999' 
TABS,ioos:station:wmo:42048:1,2016-03-02T02:00:00Z,27.9396,-96.8429,2.0,37.85856045,15.18626024,-99999.0,'11111222,11111222,99999999' 
TABS,ioos:station:wmo:42048:1,2016-03-02T02:30:00Z,27.9396,-96.8429,2.0,41.36959142,15.85687233,-99999.0,'11111222,11111222,99999999' 
TABS,ioos:station:wmo:42048:1,2016-03-02T03:00:00Z,27.9396,-96.8429,2.0,30.32704521,16.97254842,-99999.0,'11111222,11111222,99999999' 
TABS,ioos:station:wmo:42048:1,2016-03-02T03:30:00Z,27.9396,-96.8429,2.0,41.64415673,18.1188631,-99999.0,'11111222,11111222,99999999' 
TABS,ioos:station:wmo:42048:1,2016-03-02T04:00:00Z,27.9396,-96.8429,2.0,43.72707819,18.14176673,-99999.0,'11111222,11111222,99999999' 
TABS,ioos:station:wmo:42048:1,2016-03-02T04:30:00Z,27.9396,-96.8429,2.0,50.30817862,17.42713402,-99999.0,'11111222,11111222,99999999' 
TABS,ioos:station:wmo:42048:1,2016-03-02T05:00:00Z,27.9396,-96.8429,2.0,62.15778041,16.25130764,-99999.0,'11111222,11111222,99999999' 
TABS,ioos:station:wmo:42048:1,2016-03-02T05:30:00Z,27.9396,-96.8429,2.0,58.08288188,15.15056765,-99999.0,'11111222,11111222,99999999' 
TABS,ioos:station:wmo:42048:1,2016-03-02T06:00:00Z,27.9396,-96.8429,2.0,60.54578076,19.07554717,-99999.0,'11111222,11111222,99999999' 
TABS,ioos:station:wmo:42048:1,2016-03-02T06:30:00Z,27.9396,-96.8429,2.0,57.05730339,16.58694668,-99999.0,'11111222,11111222,99999999' 
TABS,ioos:station:wmo:42048:1,2016-03-02T07:00:00Z,27.9396,-96.8429,2.0,54.03679992,16.43205708,-99999.0,'11111222,11111222,99999999' 
TABS,ioos:station:wmo:42048:1,2016-03-02T07:30:00Z,27.9396,-96.8429,2.0,53.33080796,15.42209454,-99999.0,'11111222,11111222,99999999' 
TABS,ioos:station:wmo:42048:1,2016-03-02T08:00:00Z,27.9396,-96.8429,2.0,56.3844764,14.9380889,-99999.0,'11111222,11111222,99999999' 
TABS,ioos:station:wmo:42048:1,2016-03-02T08:30:00Z,27.9396,-96.8429,2.0,51.77264128,12.83160161,-99999.0,'11111222,11111222,99999999' 
TABS,ioos:station:wmo:42048:1,2016-03-02T09:00:00Z,27.9396,-96.8429,2.0,59.41848776,9.513238145,-99999.0,'11133222,11111222,99999999' 
TABS,ioos:station:wmo:42048:1,2016-03-02T09:30:00Z,27.9396,-96.8429,2.0,56.75626022,8.190396816,-99999.0,'11133222,11111222,99999999' 
TABS,ioos:station:wmo:42048:1,2016-03-02T10:00:00Z,27.9396,-96.8429,2.0,51.3910424,7.051248116,-99999.0,'11133222,11111222,99999999' 
TABS,ioos:station:wmo:42048:1,2016-03-02T10:30:00Z,27.9396,-96.8429,2.0,40.32595245,6.768308504,-99999.0,'11133222,11111222,99999999' 
TABS,ioos:station:wmo:42048:1,2016-03-02T11:00:00Z,27.9396,-96.8429,2.0,90.0,2.29,-99999.0,'11133222,11111222,99999999' 
TABS,ioos:station:wmo:42048:1,2016-03-02T11:30:00Z,27.9396,-96.8429,2.0,41.63365244,1.685823241,-99999.0,'11133222,11111222,99999999' 
TABS,ioos:station:wmo:42048:1,2016-03-02T12:00:00Z,27.9396,-96.8429,2.0,282.9133315,2.103188056,-99999.0,'11133222,11111222,99999999' 
TABS,ioos:station:wmo:42048:1,2016-03-02T12:30:00Z,27.9396,-96.8429,2.0,300.4461358,5.880926798,-99999.0,'11133222,11111222,99999999' 
TABS,ioos:station:wmo:42048:1,2016-03-02T13:00:00Z,27.9396,-96.8429,2.0,256.5722259,9.129556397,-99999.0,'11133222,11111222,99999999' 
TABS,ioos:station:wmo:42048:1,2016-03-02T13:30:00Z,27.9396,-96.8429,2.0,246.1447868,7.566372975,-99999.0,'11133222,11111222,99999999' 
TABS,ioos:station:wmo:42048:1,2016-03-02T14:00:00Z,27.9396,-96.8429,2.0,251.1104258,9.17405581,-99999.0,'11133222,11111222,99999999' 
TABS,ioos:station:wmo:42048:1,2016-03-02T14:30:00Z,27.9396,-96.8429,2.0,239.1830833,10.01383543,-99999.0,'11111222,11111222,99999999' 
TABS,ioos:station:wmo:42048:1,2016-03-02T15:00:00Z,27.9396,-96.8429,2.0,254.1630385,13.7415756,-99999.0,'11111222,11111222,99999999' 
TABS,ioos:station:wmo:42048:1,2016-03-02T15:30:00Z,27.9396,-96.8429,2.0,247.0142301,14.46875599,-99999.0,'11111222,11111222,99999999' 
TABS,ioos:station:wmo:42048:1,2016-03-02T16:00:00Z,27.9396,-96.8429,2.0,242.6540437,16.41426209,-99999.0,'11111222,11111222,99999999' 
TABS,ioos:station:wmo:42048:1,2016-03-02T16:30:00Z,27.9396,-96.8429,2.0,250.6880134,18.8082668,-99999.0,'11111222,11111222,99999999' 
TABS,ioos:station:wmo:42048:1,2016-03-02T17:00:00Z,27.9396,-96.8429,2.0,253.5502239,19.98810897,-99999.0,'11111222,11111222,99999999' 
TABS,ioos:station:wmo:42048:1,2016-03-02T17:30:00Z,27.9396,-96.8429,2.0,246.6043485,18.35937363,-99999.0,'11111222,11111222,99999999' 
TABS,ioos:station:wmo:42048:1,2016-03-02T18:00:00Z,27.9396,-96.8429,2.0,248.7545663,21.80166049,-99999.0,'11111222,11111222,99999999' 
TABS,ioos:station:wmo:42048:1,2016-03-02T18:30:00Z,27.9396,-96.8429,2.0,244.7450462,20.53247428,-99999.0,'11111222,11111222,99999999' 
TABS,ioos:station:wmo:42048:1,2016-03-02T19:00:00Z,27.9396,-96.8429,2.0,241.3914647,20.07028899,-99999.0,'11111222,11111222,99999999' 
TABS,ioos:station:wmo:42048:1,2016-03-02T19:30:00Z,27.9396,-96.8429,2.0,240.5335371,22.17891341,-99999.0,'11111222,11111222,99999999' 
TABS,ioos:station:wmo:42048:1,2016-03-02T20:00:00Z,27.9396,-96.8429,2.0,240.4491141,21.20882128,-99999.0,'11111222,11111222,99999999' 
TABS,ioos:station:wmo:42048:1,2016-03-02T20:30:00Z,27.9396,-96.8429,2.0,247.1562581,22.8740202,-99999.0,'11111222,11111222,99999999' 
TABS,ioos:station:wmo:42048:1,2016-03-02T21:00:00Z,27.9396,-96.8429,2.0,242.9382742,21.16741364,-99999.0,'11111222,11111222,99999999' 
TABS,ioos:station:wmo:42048:1,2016-03-02T21:30:00Z,27.9396,-96.8429,2.0,244.21123,21.44586207,-99999.0,'11111222,11111222,99999999' 
TABS,ioos:station:wmo:42048:1,2016-03-02T22:00:00Z,27.9396,-96.8429,2.0,240.4869822,24.17704903,-99999.0,'11111222,11111222,99999999' 
TABS,ioos:station:wmo:42048:1,2016-03-02T22:30:00Z,27.9396,-96.8429,2.0,240.3036648,23.25404051,-99999.0,'11111222,11111222,99999999' 
TABS,ioos:station:wmo:42048:1,2016-03-02T23:00:00Z,27.9396,-96.8429,2.0,236.6063349,20.34944962,-99999.0,'11111222,11111222,99999999' 
TABS,ioos:station:wmo:42048:1,2016-03-02T23:30:00Z,27.9396,-96.8429,2.0,240.1774662,22.98365724,-99999.0,'11111222,11111222,99999999' 
TABS,ioos:station:wmo:42048:1,2016-03-03T00:00:00Z,27.9396,-96.8429,2.0,241.7812641,24.02537201,-99999.0,'11111222,11111222,99999999' 
TABS,ioos:station:wmo:42048:1,2016-03-03T00:30:00Z,27.9396,-96.8429,2.0,237.5372571,24.98388481,-99999.0,'11111222,11111222,99999999' 
TABS,ioos:station:wmo:42048:1,2016-03-03T01:00:00Z,27.9396,-96.8429,2.0,237.6812227,25.0269235,-99999.0,'11111222,11111222,99999999' 
TABS,ioos:station:wmo:42048:1,2016-03-03T01:30:00Z,27.9396,-96.8429,2.0,233.2912519,25.54610146,-99999.0,'11111222,11111222,99999999' 
TABS,ioos:station:wmo:42048:1,2016-03-03T02:00:00Z,27.9396,-96.8429,2.0,231.4688594,26.35907434,-99999.0,'11111222,11111222,99999999' 
TABS,ioos:station:wmo:42048:1,2016-03-03T02:30:00Z,27.9396,-96.8429,2.0,224.9834854,25.01036785,-99999.0,'11111222,11111222,99999999' 
TABS,ioos:station:wmo:42048:1,2016-03-03T03:00:00Z,27.9396,-96.8429,2.0,226.5351408,25.8611098,-99999.0,'11111222,11111222,99999999' 
TABS,ioos:station:wmo:42048:1,2016-03-03T03:30:00Z,27.9396,-96.8429,2.0,219.2846342,27.05402927,-99999.0,'11111222,11111222,99999999' 
TABS,ioos:station:wmo:42048:1,2016-03-03T04:00:00Z,27.9396,-96.8429,2.0,222.2935329,24.86131533,-99999.0,'11111222,11111222,99999999' 
TABS,ioos:station:wmo:42048:1,2016-03-03T04:30:00Z,27.9396,-96.8429,2.0,223.6193335,24.65689762,-99999.0,'11111222,11111222,99999999' 
TABS,ioos:station:wmo:42048:1,2016-03-03T05:00:00Z,27.9396,-96.8429,2.0,227.7491956,24.9117663,-99999.0,'11111222,11111222,99999999' 
TABS,ioos:station:wmo:42048:1,2016-03-03T05:30:00Z,27.9396,-96.8429,2.0,225.8839199,21.99363999,-99999.0,'11111222,11111222,99999999' 
TABS,ioos:station:wmo:42048:1,2016-03-03T06:00:00Z,27.9396,-96.8429,2.0,231.6896104,23.79351592,-99999.0,'11111222,11111222,99999999' 
TABS,ioos:station:wmo:42048:1,2016-03-03T06:30:00Z,27.9396,-96.8429,2.0,227.6715427,19.11266073,-99999.0,'11111222,11111222,99999999' 
TABS,ioos:station:wmo:42048:1,2016-03-03T07:00:00Z,27.9396,-96.8429,2.0,231.3030835,21.89712767,-99999.0,'11111222,11111222,99999999' 
TABS,ioos:station:wmo:42048:1,2016-03-03T07:30:00Z,27.9396,-96.8429,2.0,228.1186849,18.84402558,-99999.0,'11111222,11111222,99999999' 
TABS,ioos:station:wmo:42048:1,2016-03-03T08:00:00Z,27.9396,-96.8429,2.0,226.4450845,15.97862635,-99999.0,'11111222,11111222,99999999' 
TABS,ioos:station:wmo:42048:1,2016-03-03T08:30:00Z,27.9396,-96.8429,2.0,225.2861602,14.1423124,-99999.0,'11111222,11111222,99999999' 
TABS,ioos:station:wmo:42048:1,2016-03-03T09:00:00Z,27.9396,-96.8429,2.0,232.8242843,13.50419194,-99999.0,'11111222,11111222,99999999' 
TABS,ioos:station:wmo:42048:1,2016-03-03T09:30:00Z,27.9396,-96.8429,2.0,230.8368223,13.69696682,-99999.0,'11111222,11111222,99999999' 
TABS,ioos:station:wmo:42048:1,2016-03-03T10:00:00Z,27.9396,-96.8429,2.0,215.6916636,13.81491947,-99999.0,'11111222,11111222,99999999' 
TABS,ioos:station:wmo:42048:1,2016-03-03T10:30:00Z,27.9396,-96.8429,2.0,222.1357148,12.87835781,-99999.0,'11111222,11111222,99999999' 
TABS,ioos:station:wmo:42048:1,2016-03-03T11:00:00Z,27.9396,-96.8429,2.0,225.7994041,12.66551618,-99999.0,'11111222,11111222,99999999' 
TABS,ioos:station:wmo:42048:1,2016-03-03T11:30:00Z,27.9396,-96.8429,2.0,229.4878426,11.11444556,-99999.0,'11111222,11111222,99999999' 
TABS,ioos:station:wmo:42048:1,2016-03-03T12:00:00Z,27.9396,-96.8429,2.0,211.7701401,10.59794791,-99999.0,'11111222,11111222,99999999' 
TABS,ioos:station:wmo:42048:1,2016-03-03T12:30:00Z,27.9396,-96.8429,2.0,236.3788716,9.174747953,-99999.0,'11133222,11111222,99999999' 
TABS,ioos:station:wmo:42048:1,2016-03-03T13:00:00Z,27.9396,-96.8429,2.0,224.6860252,7.750006452,-99999.0,'11133222,11111222,99999999' 
TABS,ioos:station:wmo:42048:1,2016-03-03T13:30:00Z,27.9396,-96.8429,2.0,218.2448681,8.416424419,-99999.0,'11133222,11111222,99999999' 
TABS,ioos:station:wmo:42048:1,2016-03-03T14:00:00Z,27.9396,-96.8429,2.0,197.2889351,7.907275131,-99999.0,'11133222,11111222,99999999' 
TABS,ioos:station:wmo:42048:1,2016-03-03T14:30:00Z,27.9396,-96.8429,2.0,193.3780293,11.19375719,-99999.0,'11111222,11111222,99999999' 
TABS,ioos:station:wmo:42048:1,2016-03-03T15:00:00Z,27.9396,-96.8429,2.0,188.1525523,10.71832543,-99999.0,'11111222,11111222,99999999' 
TABS,ioos:station:wmo:42048:1,2016-03-03T15:30:00Z,27.9396,-96.8429,2.0,186.6651242,11.28628371,-99999.0,'11111222,11111222,99999999' 
TABS,ioos:station:wmo:42048:1,2016-03-03T16:00:00Z,27.9396,-96.8429,2.0,185.9956191,11.39232198,-99999.0,'11111222,11111222,99999999' 
TABS,ioos:station:wmo:42048:1,2016-03-03T16:30:00Z,27.9396,-96.8429,2.0,192.6074332,7.880006345,-99999.0,'11133222,11111222,99999999' 
TABS,ioos:station:wmo:42048:1,2016-03-03T17:00:00Z,27.9396,-96.8429,2.0,181.8378389,9.66497284,-99999.0,'11133222,11111222,99999999' 
TABS,ioos:station:wmo:42048:1,2016-03-03T17:30:00Z,27.9396,-96.8429,2.0,166.9478943,9.741668235,-99999.0,'11133222,11111222,99999999' 
TABS,ioos:station:wmo:42048:1,2016-03-03T18:00:00Z,27.9396,-96.8429,2.0,168.4770334,11.61407766,-99999.0,'11111222,11111222,99999999' 
TABS,ioos:station:wmo:42048:1,2016-03-03T18:30:00Z,27.9396,-96.8429,2.0,170.8522975,11.07079491,-99999.0,'11111222,11111222,99999999' 
TABS,ioos:station:wmo:42048:1,2016-03-03T19:00:00Z,27.9396,-96.8429,2.0,174.6170042,9.913717769,-99999.0,'11133222,11111222,99999999' 
TABS,ioos:station:wmo:42048:1,2016-03-03T19:30:00Z,27.9396,-96.8429,2.0,169.9692736,11.76990229,-99999.0,'11111222,11111222,99999999' 
TABS,ioos:station:wmo:42048:1,2016-03-03T20:00:00Z,27.9396,-96.8429,2.0,183.6345879,9.779672796,-99999.0,'11133222,11111222,99999999' 
TABS,ioos:station:wmo:42048:1,2016-03-03T20:30:00Z,27.9396,-96.8429,2.0,188.4194783,8.673482576,-99999.0,'11133222,11111222,99999999' 
TABS,ioos:station:wmo:42048:1,2016-03-03T21:00:00Z,27.9396,-96.8429,2.0,193.2464914,10.56100374,-99999.0,'11111222,11111222,99999999' 
TABS,ioos:station:wmo:42048:1,2016-03-03T21:30:00Z,27.9396,-96.8429,2.0,184.3868933,11.37332405,-99999.0,'11111222,11111222,99999999' 
TABS,ioos:station:wmo:42048:1,2016-03-03T22:00:00Z,27.9396,-96.8429,2.0,191.3525623,13.10644498,-99999.0,'11111222,11111222,99999999' 
TABS,ioos:station:wmo:42048:1,2016-03-03T22:30:00Z,27.9396,-96.8429,2.0,191.398526,7.589703552,-99999.0,'11133222,11111222,99999999' 
TABS,ioos:station:wmo:42048:1,2016-03-03T23:00:00Z,27.9396,-96.8429,2.0,189.0069384,10.34759876,-99999.0,'11111222,11111222,99999999' 
TABS,ioos:station:wmo:42048:1,2016-03-03T23:30:00Z,27.9396,-96.8429,2.0,195.3975018,10.92203736,-99999.0,'11111222,11111222,99999999' 
TABS,ioos:station:wmo:42048:1,2016-03-04T00:00:00Z,27.9396,-96.8429,2.0,194.0562711,13.71053974,-99999.0,'11111222,11111222,99999999' 
TABS,ioos:station:wmo:42048:1,2016-03-04T00:30:00Z,27.9396,-96.8429,2.0,199.6945849,14.09451666,-99999.0,'11111222,11111222,99999999' 
TABS,ioos:station:wmo:42048:1,2016-03-04T01:00:00Z,27.9396,-96.8429,2.0,201.6709483,13.89190412,-99999.0,'11111222,11111222,99999999' 
TABS,ioos:station:wmo:42048:1,2016-03-04T01:30:00Z,27.9396,-96.8429,2.0,211.0977391,10.97765458,-99999.0,'11111222,11111222,99999999' 
TABS,ioos:station:wmo:42048:1,2016-03-04T02:00:00Z,27.9396,-96.8429,2.0,193.5867492,9.279698271,-99999.0,'11133222,11111222,99999999' 
TABS,ioos:station:wmo:42048:1,2016-03-04T02:30:00Z,27.9396,-96.8429,2.0,215.416762,9.939195138,-99999.0,'11133222,11111222,99999999' 
TABS,ioos:station:wmo:42048:1,2016-03-04T03:00:00Z,27.9396,-96.8429,2.0,188.9920275,10.620532,-99999.0,'11111222,11111222,99999999' 
TABS,ioos:station:wmo:42048:1,2016-03-04T03:30:00Z,27.9396,-96.8429,2.0,190.8674655,10.92595534,-99999.0,'11111222,11111222,99999999' 
TABS,ioos:station:wmo:42048:1,2016-03-04T04:00:00Z,27.9396,-96.8429,2.0,187.2852808,11.51294923,-99999.0,'11111222,11111222,99999999' 
TABS,ioos:station:wmo:42048:1,2016-03-04T04:30:00Z,27.9396,-96.8429,2.0,178.6374093,8.832496816,-99999.0,'11133222,11111222,99999999' 
TABS,ioos:station:wmo:42048:1,2016-03-04T05:00:00Z,27.9396,-96.8429,2.0,171.3016377,9.984838506,-99999.0,'11133222,11111222,99999999' 
TABS,ioos:station:wmo:42048:1,2016-03-04T05:30:00Z,27.9396,-96.8429,2.0,170.2016275,12.34,-99999.0,'11111222,11111222,99999999' 
TABS,ioos:station:wmo:42048:1,2016-03-04T06:00:00Z,27.9396,-96.8429,2.0,179.0407817,13.7419249,-99999.0,'11111222,11111222,99999999' 
TABS,ioos:station:wmo:42048:1,2016-03-04T06:30:00Z,27.9396,-96.8429,2.0,189.8997866,17.21636431,-99999.0,'11111222,11111222,99999999' 
TABS,ioos:station:wmo:42048:1,2016-03-04T07:00:00Z,27.9396,-96.8429,2.0,201.5282637,20.27444697,-99999.0,'11111222,11111222,99999999' 
TABS,ioos:station:wmo:42048:1,2016-03-04T07:30:00Z,27.9396,-96.8429,2.0,202.4956989,20.98697215,-99999.0,'11111222,11111222,99999999' 
TABS,ioos:station:wmo:42048:1,2016-03-04T08:00:00Z,27.9396,-96.8429,2.0,206.9462204,22.83970446,-99999.0,'11111222,11111222,99999999' 
TABS,ioos:station:wmo:42048:1,2016-03-04T08:30:00Z,27.9396,-96.8429,2.0,208.3100311,24.3755041,-99999.0,'11111222,11111222,99999999' 
TABS,ioos:station:wmo:42048:1,2016-03-04T09:00:00Z,27.9396,-96.8429,2.0,216.2296876,24.53353012,-99999.0,'11111222,11111222,99999999' 
TABS,ioos:station:wmo:42048:1,2016-03-04T09:30:00Z,27.9396,-96.8429,2.0,219.4018074,21.81930567,-99999.0,'11111222,11111222,99999999' 
TABS,ioos:station:wmo:42048:1,2016-03-04T10:00:00Z,27.9396,-96.8429,2.0,214.5386509,21.34165879,-99999.0,'11111222,11111222,99999999' 
TABS,ioos:station:wmo:42048:1,2016-03-04T10:30:00Z,27.9396,-96.8429,2.0,225.449213,19.82788441,-99999.0,'11111222,11111222,99999999' 
TABS,ioos:station:wmo:42048:1,2016-03-04T11:00:00Z,27.9396,-96.8429,2.0,222.4728159,23.57665159,-99999.0,'11111222,11111222,99999999' 
TABS,ioos:station:wmo:42048:1,2016-03-04T11:30:00Z,27.9396,-96.8429,2.0,225.9117939,23.54256783,-99999.0,'11111222,11111222,99999999' 
TABS,ioos:station:wmo:42048:1,2016-03-04T12:00:00Z,27.9396,-96.8429,2.0,227.371521,21.5286321,-99999.0,'11111222,11111222,99999999' 
TABS,ioos:station:wmo:42048:1,2016-03-04T12:30:00Z,27.9396,-96.8429,2.0,221.6165869,20.01063967,-99999.0,'11111222,11111222,99999999' 
TABS,ioos:station:wmo:42048:1,2016-03-04T13:00:00Z,27.9396,-96.8429,2.0,233.495959,16.27233235,-99999.0,'11111222,11111222,99999999' 
TABS,ioos:station:wmo:42048:1,2016-03-04T13:30:00Z,27.9396,-96.8429,2.0,226.8848568,11.82215293,-99999.0,'11111222,11111222,99999999' 
TABS,ioos:station:wmo:42048:1,2016-03-04T14:00:00Z,27.9396,-96.8429,2.0,214.6621086,14.3826736,-99999.0,'11111222,11111222,99999999' 
TABS,ioos:station:wmo:42048:1,2016-03-04T14:30:00Z,27.9396,-96.8429,2.0,220.8643233,13.9238285,-99999.0,'11111222,11111222,99999999' 
TABS,ioos:station:wmo:42048:1,2016-03-04T15:00:00Z,27.9396,-96.8429,2.0,218.0077753,15.10297984,-99999.0,'11111222,11111222,99999999' 
TABS,ioos:station:wmo:42048:1,2016-03-04T15:30:00Z,27.9396,-96.8429,2.0,227.3380933,14.90407998,-99999.0,'11111222,11111222,99999999' 
TABS,ioos:station:wmo:42048:1,2016-03-04T16:00:00Z,27.9396,-96.8429,2.0,217.5704302,16.3512232,-99999.0,'11111222,11111222,99999999' 